Lapse_Rate
1.4 1.1 0.9 1.1 1.2 1.2 1.5 1.7 1.9 2.4 2.8 3.0 2.9 4.3 4.0 4.8 5.0 4.8 4.9 5.5 5.0 4.8 4.8 5.2 6.3 6.9 6.0 6.7 5.6 5.2 6.1 6.3 7.0 6.4 4.7 4.9 5.8 4.9 4.9 4.5 5.2 4.5 4.4
0.8 0.6 0.9 0.6 0.8 1.1 1.3 1.5 2.1 2.3 3.0 2.9 3.0 3.7 4.8 4.2 4.7 4.5 4.7 5.1 4.7 4.7 4.8 5.1 6.1 7.1 6.8 6.3 6.1 6.2 6.3 6.4 6.5 6.4 5.7 4.5 4.2 3.1 3.3 4.2 4.8 5.5 4.6
0.6 0.3 0.7 0.7 0.7 0.9 1.0 1.5 1.8 2.0 2.4 2.6 2.8 2.9 4.3 4.9 4.4 4.6 4.6 4.7 4.6 4.7 4.6 4.7 5.7 5.8 6.5 6.4 6.4 5.1 6.3 6.8 6.4 6.6 6.8 5.9 4.8 3.1 3.1 3.0 3.6 4.0 4.6
0.5 0.2 0.3 0.4 0.4 0.6 0.7 1.2 1.7 1.7 1.9 1.9 2.4 2.7 3.3 5.1 5.8 5.8 4.6 4.0 4.0 4.6 4.8 4.8 6.7 6.1 6.5 7.2 6.8 6.4 6.5 6.1 6.2 6.8 6.5 5.6 4.9 3.9 2.8 3.4 2.9 2.3 2.4
0.5 0.4 0.6 0.3 0.4 0.4 0.8 0.8 1.1 1.2 1.6 1.5 1.9 2.4 2.7 4.0 6.0 5.9 4.5 3.6 3.6 3.8 4.2 4.4 5.0 7.9 9.0 9.0 8.0 7.0 6.8 5.3 5.8 6.1 6.1 5.7 5.2 4.6 3.0 4.3 4.6 4.1 3.4
0.2 0.6 0.6 0.7 0.7 0.4 0.3 0.4 0.5 0.4 0.7 0.8 1.1 1.4 1.8 4.6 7.7 8.9 6.9 3.4 3.3 3.4 3.2 3.6 4.2 6.3 6.7 8.0 8.6 8.1 7.9 6.7 5.3 4.5 5.9 6.1 5.7 5.7 5.2 4.9 5.2 5.7 5.4
0.4 0.7 1.0 0.8 0.7 0.3 0.0 0.1 0.2 -0.3 -0.6 0.1 0.5 0.6 1.0 2.1 8.3 9.1 8.3 3.5 3.1 2.7 2.9 2.9 3.9 5.8 6.4 5.4 5.7 6.1 5.4 7.4 8.1 6.9 7.2 6.9 5.5 5.3 5.4 4.8 3.7 4.4 5.8
0.4 0.7 1.0 1.1 0.7 0.3 0.0 -0.1 -0.2 -0.6 -0.6 -0.5 0.1 0.2 0.5 2.3 7.0 8.6 8.4 3.9 3.2 3.0 2.9 2.9 3.3 4.6 6.7 5.3 5.0 4.4 4.3 4.0 4.8 6.6 6.9 6.5 5.4 4.7 5.7 5.8 5.6 5.4 4.1
0.4 0.8 0.9 0.9 0.7 0.5 0.3 -0.3 -0.3 -0.6 -0.4 -0.2 0.2 0.2 0.1 1.0 5.2 7.4 6.9 3.6 3.2 2.8 2.9 2.8 4.7 5.2 8.8 7.2 5.6 5.4 4.7 4.3 5.5 6.9 7.1 7.6 7.6 8.1 7.0 3.9 1.8 2.9 2.7
-0.4 0.5 0.3 0.3 0.5 0.6 0.4 -0.0 -0.1 -0.4 0.1 0.4 0.9 0.7 1.9 0.7 3.3 5.6 8.0 3.5 2.6 1.9 2.0 2.7 5.5 7.2 9.4 9.3 6.0 5.4 5.4 4.4 2.8 2.0 2.5 3.0 3.5 3.5 5.9 4.1 4.9 5.3 5.6
-0.5 -0.5 -0.5 -0.4 -0.3 -0.2 -0.4 -0.4 -0.3 -0.1 -0.4 -0.0 0.6 0.7 0.9 1.5 1.4 5.6 7.4 4.3 2.4 2.1 1.7 1.7 2.3 6.8 7.5 7.2 7.6 5.4 6.6 4.4 3.3 3.8 4.3 2.4 2.8 3.1 2.8 2.8 3.4 5.2 5.4
-0.8 -0.6 -0.6 -0.8 -0.1 0.9 -0.7 -0.7 -0.5 -0.5 -0.3 -0.2 -0.2 0.7 1.2 1.2 3.4 5.0 6.8 7.1 6.2 2.4 1.8 1.7 2.3 6.2 6.2 6.1 5.3 6.9 7.0 4.7 2.4 2.5 3.7 4.2 4.5 5.3 4.9 4.7 3.0 2.8 4.4
-0.9 -0.8 -0.6 -0.2 -0.1 -0.3 -0.7 -0.5 -0.4 -0.0 -0.1 0.2 0.7 0.6 1.1 1.4 1.3 4.3 5.4 6.2 5.8 3.1 2.5 4.2 4.9 4.9 4.8 3.1 5.2 5.4 4.1 1.7 2.0 2.3 2.2 3.8 4.6 4.6 5.4 4.2 3.7 3.5 2.6
-0.7 -0.4 -0.3 -0.3 0.5 0.2 0.0 -0.0 -0.3 -0.2 0.1 0.8 1.2 1.2 1.1 1.4 2.1 2.0 2.7 1.8 3.7 2.7 2.9 1.4 3.6 3.8 4.0 3.5 2.2 1.7 1.2 1.2 2.1 1.6 1.7 1.4 1.9 3.7 4.2 3.8 3.5 4.2 3.8
-0.9 -0.3 -0.2 -0.1 0.2 -0.0 0.1 0.3 0.7 0.7 1.0 1.0 1.7 1.9 2.2 2.2 3.3 6.7 6.1 4.1 3.4 4.2 2.9 1.5 1.4 1.7 1.4 1.3 1.4 1.5 1.5 1.4 1.2 1.4 1.4 1.3 1.8 2.1 2.9 4.0 3.9 3.9 4.6
-0.7 -0.4 -0.3 -0.1 -0.0 -0.0 -0.0 0.0 2.6 3.7 5.0 5.6 6.4 5.8 4.1 5.7 7.3 7.2 6.9 6.7 6.3 5.7 2.4 1.2 1.1 1.9 2.2 2.1 2.1 1.7 1.2 1.6 0.8 1.1 1.4 1.5 2.0 2.1 2.5 3.2 4.2 4.7 5.1
-0.9 -0.2 -0.3 1.2 0.2 0.3 0.4 0.3 0.3 1.5 4.2 5.2 5.8 6.3 6.6 6.7 7.0 6.9 6.6 6.6 6.0 4.4 2.2 1.3 1.6 2.0 2.0 2.5 2.2 2.0 2.1 1.9 0.6 0.9 1.2 1.3 1.8 2.3 3.1 3.0 3.3 3.6 4.2
-0.5 2.0 -0.3 0.2 0.3 0.4 0.5 0.6 0.5 0.7 0.5 0.9 3.0 4.4 5.5 6.0 6.3 6.2 5.9 5.0 3.0 2.8 2.2 1.7 1.8 2.3 2.2 2.0 2.6 2.4 2.3 2.1 1.1 1.0 1.1 1.5 1.3 1.9 2.1 2.4 2.8 3.0 3.3
-0.2 -0.1 0.3 0.0 0.2 1.1 0.9 1.0 0.8 1.0 1.2 1.4 1.2 2.8 3.3 5.0 5.4 5.3 5.1 2.5 2.5 2.2 2.2 2.2 2.3 2.5 2.5 1.9 2.1 3.2 2.2 2.2 2.9 1.2 1.0 1.1 1.1 1.0 1.4 1.5 1.7 4.1 4.8
0.4 2.3 2.4 1.0 1.2 1.4 1.4 1.4 1.3 1.3 1.5 1.8 1.9 2.0 1.5 2.2 2.3 2.2 2.7 2.6 2.7 2.7 2.5 2.3 2.4 2.3 2.3 1.9 1.8 2.3 3.0 2.1 1.8 1.1 1.0 1.0 1.0 0.9 1.3 1.5 1.8 2.2 2.6
1.1 1.4 3.5 2.2 1.8 1.7 1.5 1.5 1.4 1.3 1.5 1.8 1.9 2.2 5.3 2.2 2.4 2.5 2.7 2.5 2.4 2.4 2.2 2.2 2.2 2.1 2.1 2.0 2.0 2.0 2.4 3.3 2.2 1.3 1.9 1.8 1.4 1.3 1.5 1.5 1.6 1.7 2.2
1.8 1.7 1.8 2.0 2.3 2.2 1.7 1.6 1.5 1.6 1.8 1.8 1.5 2.3 4.2 2.1 2.1 2.3 2.6 2.5 2.4 2.2 2.1 1.9 2.0 2.2 1.9 2.0 2.2 2.0 2.3 2.9 2.8 2.5 2.6 2.4 2.0 1.9 1.8 1.8 2.0 1.9 2.2
2.4 2.7 2.2 2.2 2.3 3.1 2.1 1.4 1.4 1.5 1.5 1.4 1.4 2.3 2.5 2.9 3.0 3.3 3.6 3.7 3.7 2.8 2.3 1.9 1.7 1.9 2.3 2.4 2.5 2.2 2.9 3.3 3.7 3.8 2.9 1.9 1.7 1.9 2.1 1.8 2.2 2.4 2.6
2.9 3.7 5.0 2.5 2.5 1.9 1.6 1.6 1.4 2.4 2.0 2.0 2.8 3.1 3.1 3.1 3.2 3.4 4.1 4.1 4.0 3.2 2.3 1.8 1.8 1.8 1.9 2.1 2.4 2.7 2.7 3.1 4.4 3.0 2.1 1.4 1.4 1.5 1.6 1.8 2.1 2.6 2.6
3.0 4.0 5.5 5.0 3.0 2.4 2.2 2.3 2.5 3.3 3.8 3.8 3.6 3.3 3.5 3.7 3.8 4.1 4.4 3.4 3.4 3.1 2.3 1.9 1.8 2.0 2.0 2.2 2.5 2.8 3.7 4.8 4.7 4.1 2.4 1.4 1.5 1.9 1.7 1.9 2.1 2.2 2.6
3.3 5.2 5.3 5.0 4.8 4.4 4.5 5.2 5.2 4.2 3.5 3.4 3.6 3.4 3.6 4.0 3.9 4.2 3.4 3.0 2.8 2.7 2.4 1.7 1.8 2.1 2.3 2.2 2.4 4.0 4.5 5.0 4.3 3.6 2.3 1.4 1.7 2.0 2.0 2.5 2.8 2.7 2.6
Wind_Speed
4 4 4 5 5 5 5 5 6 6 7 6 6 7 6 7 6 6 6 6 6 7 7 7 8 7 4 3 2 1 1 1 1 1 1 2 4 5 8 12 11 9 11
4 4 4 4 4 5 5 6 7 6 8 6 6 8 7 6 6 6 6 6 6 7 8 8 8 7 7 4 3 3 2 1 1 1 1 2 3 3 3 4 4 7 8
3 4 4 5 4 5 6 6 6 6 6 7 5 6 8 7 6 6 6 5 6 6 6 8 8 8 7 4 4 3 1 0 2 2 1 1 2 3 3 3 3 4 7
4 4 4 4 5 5 6 6 6 6 6 6 6 5 6 9 9 4 5 6 6 6 6 6 9 8 7 5 5 5 3 2 1 1 1 1 1 1 2 3 4 3 3
4 4 5 5 5 5 6 6 5 6 5 6 6 6 6 7 6 3 4 5 5 6 6 7 6 11 15 14 6 5 5 4 2 1 1 1 0 1 2 1 3 5 4
3 4 4 4 5 6 6 6 6 6 6 6 6 6 7 6 18 13 8 5 6 5 6 7 7 10 9 12 14 14 11 5 2 3 2 2 1 0 1 1 1 3 3
4 4 4 4 5 5 6 5 6 6 5 5 6 6 7 7 16 13 13 4 5 5 6 6 7 6 9 2 10 10 11 12 10 2 3 2 1 2 1 2 2 2 3
4 4 4 4 5 5 5 5 5 4 5 4 5 6 6 6 15 18 9 4 4 6 5 6 6 8 9 3 3 6 6 6 6 4 5 4 3 3 3 2 1 2 3
5 4 4 4 5 5 5 5 4 4 4 4 4 6 6 7 14 16 9 4 5 6 5 6 5 7 14 2 2 4 4 4 10 12 11 11 12 9 2 2 2 2 2
6 4 4 4 4 5 4 5 3 2 4 4 5 5 9 7 12 13 10 3 5 4 6 6 12 11 13 13 1 3 4 2 4 6 7 7 10 9 8 2 1 4 4
5 5 5 5 6 6 5 3 3 4 5 5 5 5 6 6 8 12 13 2 2 3 4 4 5 15 13 12 11 5 3 2 4 3 4 3 3 3 3 4 3 4 4
5 5 5 6 4 3 5 4 4 4 5 5 5 5 4 5 11 10 13 11 9 2 4 4 5 13 13 12 8 11 11 7 3 3 3 3 4 4 2 3 6 6 9
5 6 6 5 5 5 4 5 3 3 3 4 4 4 4 4 4 11 9 11 10 4 3 7 11 12 11 9 12 11 9 3 3 3 3 3 2 3 4 3 4 5 7
6 6 5 5 5 4 4 3 3 4 3 4 4 4 4 4 4 4 3 3 6 5 6 4 6 7 8 7 6 6 4 3 3 3 3 4 4 3 3 2 2 2 3
5 5 5 4 4 4 4 4 4 4 5 3 4 4 4 4 4 8 7 3 3 5 4 3 3 3 4 4 4 4 4 3 3 3 3 3 3 3 3 2 2 2 3
5 4 4 4 4 3 3 4 7 10 11 11 10 6 3 7 12 10 10 9 8 8 3 3 3 3 4 5 5 5 3 6 3 3 3 3 4 3 4 4 3 3 6
6 5 4 5 3 3 3 3 4 5 7 7 8 10 11 11 11 10 11 9 7 6 2 3 3 4 4 4 5 4 4 5 4 3 3 4 4 4 5 4 4 4 6
6 11 4 3 3 3 3 3 3 3 4 4 6 9 9 11 10 10 10 6 3 4 2 3 4 4 4 4 5 5 5 5 4 4 4 4 4 4 4 4 5 5 6
5 4 4 3 3 4 3 3 3 3 3 3 3 5 7 9 8 9 9 3 2 3 3 4 3 4 4 4 4 5 4 5 5 4 4 4 4 3 5 4 5 11 11
5 10 7 3 3 3 2 3 3 3 3 2 2 3 3 5 3 3 3 3 3 4 4 4 4 3 4 3 4 4 5 5 5 4 5 4 4 4 5 5 5 5 6
4 4 7 3 3 3 3 3 3 2 3 2 2 3 7 3 3 3 3 3 3 3 4 4 4 4 4 4 4 4 5 6 5 4 6 7 5 6 5 5 5 5 5
5 4 3 3 3 3 3 2 1 1 1 1 2 3 7 2 3 3 3 4 4 4 4 3 3 4 3 4 4 4 5 7 7 7 8 8 6 6 5 5 5 5 5
5 5 4 3 3 4 2 2 1 0 0 2 2 3 3 3 4 5 5 6 5 5 7 6 4 4 7 8 8 5 5 7 7 8 8 6 5 5 5 5 6 6 5
6 6 5 4 3 3 3 3 2 2 1 0 1 2 3 3 3 4 5 5 6 7 8 7 5 5 7 8 9 10 10 10 13 10 7 5 5 6 4 4 4 5 5
6 6 5 5 4 3 3 3 3 2 1 1 1 1 2 2 3 4 4 4 5 5 7 8 8 9 9 11 12 15 16 15 13 14 9 5 5 7 5 4 4 4 4
7 7 6 4 5 5 4 3 3 3 2 1 0 0 1 2 2 4 4 4 5 5 8 8 10 12 12 12 14 17 16 15 13 15 11 4 4 5 4 5 6 4 5
Wind_Direction
328 320 326 328 322 326 316 315 310 309 328 331 328 323 326 332 333 339 334 347 348 338 342 339 340 339 330 333 347 314 265 213 290 293 310 333 0 360 359 357 17 31 26
298 298 305 305 319 328 320 315 317 316 321 315 327 331 336 331 328 344 339 348 349 344 340 345 340 344 356 345 334 308 280 196 252 315 312 332 13 346 332 351 359 3 354
279 295 305 312 322 312 310 316 317 318 318 325 332 336 332 331 325 340 337 343 347 342 338 339 331 340 358 7 5 336 245 201 231 227 290 18 24 7 342 347 354 359 357
275 283 293 305 303 306 303 308 319 325 329 326 330 322 320 329 318 318 333 345 340 340 337 340 334 328 346 2 3 355 349 274 236 313 91 71 56 343 51 3 342 354 330
264 288 297 304 305 309 312 320 325 324 329 329 341 344 331 325 321 254 2 353 345 338 338 336 332 343 1 1 12 345 350 4 343 356 64 15 41 19 67 8 324 322 308
260 275 303 319 317 313 316 329 331 328 338 339 342 344 335 335 336 8 31 352 339 339 331 325 329 339 335 351 357 360 360 5 24 22 17 2 60 240 238 166 318 339 322
271 295 313 318 315 320 321 333 338 328 327 333 345 343 333 326 341 360 11 345 332 327 326 323 325 326 329 345 348 1 355 1 19 26 347 321 269 223 150 349 295 241 240
267 292 308 315 313 320 328 334 331 326 327 323 328 332 329 319 338 341 4 347 335 326 321 316 309 317 334 104 6 358 350 347 341 336 333 292 249 225 188 193 218 308 293
251 276 296 307 305 316 320 320 308 313 315 324 313 321 328 313 335 331 4 345 341 334 324 329 325 327 333 102 6 339 353 339 343 352 346 343 343 343 180 112 353 27 299
215 238 271 272 268 276 285 295 285 296 293 312 320 326 317 318 326 330 349 348 349 340 331 336 347 338 359 349 14 318 314 341 332 356 350 353 359 355 9 63 229 282 291
211 221 240 238 237 240 252 240 262 289 306 311 315 315 319 318 315 332 345 4 312 337 337 331 328 343 351 353 357 321 306 127 346 3 347 310 324 342 343 339 297 255 265
219 241 251 241 237 238 237 260 260 271 296 302 312 313 314 315 327 332 348 358 359 8 322 313 311 352 354 353 348 344 350 6 345 327 328 325 321 343 286 291 289 256 248
225 243 251 250 250 241 241 257 266 250 271 292 298 301 308 314 314 330 340 354 354 15 312 347 354 356 358 356 352 351 -0 349 339 338 320 296 294 285 289 297 307 307 274
225 249 264 263 269 269 277 276 271 272 271 274 288 297 300 311 310 307 317 339 346 351 353 343 357 359 5 5 1 349 337 327 320 309 297 290 297 303 288 256 280 293 285
223 238 255 257 268 280 272 264 262 262 242 263 274 268 286 303 286 328 346 350 335 347 358 339 341 344 342 345 338 329 332 344 344 321 305 304 296 303 295 281 254 266 261
218 228 235 244 254 262 285 299 290 279 285 300 306 309 283 298 333 345 348 357 1 3 19 323 326 332 329 332 333 329 320 341 322 317 305 299 301 303 298 295 282 266 282
208 222 235 251 255 266 272 272 305 322 320 329 339 338 334 336 345 355 356 3 9 19 1 318 323 327 321 323 320 325 318 319 308 314 311 308 305 302 318 298 289 277 281
201 227 211 234 244 259 268 279 285 296 308 313 329 339 350 352 6 11 6 12 354 353 329 319 327 325 322 320 323 323 318 318 315 319 319 312 306 303 308 302 297 290 289
192 206 221 228 232 245 256 270 269 279 288 297 318 344 356 355 17 20 25 24 332 321 328 327 329 324 312 311 308 313 307 316 327 318 307 307 301 300 302 292 292 315 317
194 213 211 212 231 242 252 259 271 277 291 301 315 309 321 11 8 351 7 347 336 322 324 319 325 310 301 311 311 315 314 319 318 312 314 307 302 298 296 297 297 300 304
184 194 215 207 221 234 234 248 263 274 288 308 302 298 350 49 345 350 338 326 321 315 313 312 314 306 311 321 311 322 320 319 319 320 335 328 315 314 305 290 286 285 288
176 183 185 204 221 224 221 225 229 246 310 345 318 321 360 32 356 349 335 327 321 310 303 304 308 309 314 314 312 327 330 331 334 336 331 323 313 310 310 309 312 309 310
172 178 178 183 202 204 166 158 149 155 299 332 341 334 351 349 355 357 352 345 336 321 320 320 322 321 319 318 325 318 326 328 324 327 321 311 310 310 312 313 322 326 325
176 182 175 177 178 181 182 176 177 195 181 117 349 336 332 318 326 320 341 340 338 328 319 321 329 320 323 328 328 326 311 302 317 305 301 305 309 316 312 312 315 318 319
174 172 172 175 172 168 177 184 196 195 199 115 31 344 330 326 345 345 345 353 339 332 318 325 339 334 334 336 337 336 331 336 343 342 337 319 318 323 324 321 330 335 337
171 173 170 168 171 183 186 171 164 166 148 137 109 196 328 352 340 355 3 345 341 337 332 328 339 348 350 341 338 342 345 353 359 359 359 341 338 336 335 341 345 355 356